{"data":{"norad_id":48990,"epoch":"2026-09-20T04:32:27.413952Z","epoch_age_seconds":48725,"freshness":"FRESH","line1":"1 48990U 21060Z   26263.18920618  .00000033  00000+0  52682-4 0  9995","line2":"2 48990  87.9153 209.9188 0002335  77.9282 282.2111 13.16593637252112","mean_motion":13.16593637,"eccentricity":0.0002335,"inclination_deg":87.9153,"raan_deg":209.9188,"arg_perigee_deg":77.9282,"mean_anomaly_deg":282.2111,"bstar":5.2682e-5,"rev_number":25211,"period_min":109.37315505194,"perigee_km":1195.9900737542,"apogee_km":1199.5280172075,"semimajor_km":7575.8960454808,"source":"CELESTRAK","updated_at":"2026-09-20T09:00:44.627648Z"}}